Wind_Speed
21 23 24 26 28 29 29 31 32 33 33 33 33 34 34 34 34 34 34 34 34 33 33 33 33 33 33
25 24 24 26 26 26 28 29 29 31 32 33 34 34 33 32 32 33 33 33 33 34 34 34 34 35 34
25 26 26 27 26 27 27 26 27 28 29 29 31 33 33 32 32 32 32 32 32 33 33 34 35 35 35
27 27 28 30 31 30 27 28 27 28 26 27 28 30 31 33 33 33 31 30 32 33 34 34 35 35 36
33 32 30 32 35 35 34 31 28 28 27 28 27 27 28 29 30 31 32 32 31 31 32 34 35 35 36
33 32 31 31 33 34 34 33 30 28 31 28 31 29 30 29 27 29 29 29 29 29 31 32 32 33 35
32 30 31 31 34 34 35 35 32 28 30 29 29 31 33 32 31 29 27 27 28 28 27 28 32 32 32
37 35 35 34 35 36 37 37 37 34 34 36 31 28 28 31 32 31 28 28 28 27 27 27 27 27 27
40 42 42 43 43 45 44 45 45 42 39 39 37 35 33 31 32 30 30 30 30 30 29 28 27 27 26
44 45 46 46 45 43 43 45 46 51 48 44 43 41 41 37 34 33 33 32 33 33 33 32 31 30 28
51 52 52 51 48 45 46 48 47 46 44 46 49 48 47 47 42 37 35 34 35 35 36 36 36 35 34
52 52 51 49 45 45 46 46 47 48 46 46 49 49 50 50 48 45 41 40 40 37 37 38 39 39 38
45 45 42 41 41 42 41 41 43 44 44 44 47 47 48 52 53 48 47 45 43 44 42 40 39 39 39
36 35 34 35 36 36 38 39 41 43 41 41 43 45 46 47 48 50 46 47 46 45 45 44 42 40 41
33 32 32 32 33 34 37 39 41 41 41 40 40 42 44 45 48 50 49 47 44 44 45 46 45 43 42
35 36 36 35 35 36 38 40 42 42 41 39 40 43 44 45 45 46 47 46 44 44 45 48 48 45 43
37 37 38 38 38 39 39 40 41 42 40 38 37 37 39 43 38 37 37 37 38 40 40 43 45 42 43
Wind_Direction
282 280 281 280 282 282 281 280 279 276 272 271 270 271 272 271 269 266 264 263 263 263 261 259 257 255 255
284 284 282 282 280 280 281 280 280 279 279 278 277 274 271 269 269 268 267 265 263 261 260 258 257 255 253
284 283 283 282 279 279 278 278 277 276 276 277 275 275 274 272 270 267 266 265 263 262 261 259 258 255 252
282 281 282 282 283 280 278 278 278 278 275 271 270 272 272 271 271 271 269 264 262 261 259 257 255 254 253
283 281 281 279 279 281 282 280 277 276 276 272 269 268 268 269 270 271 267 266 263 260 259 257 255 254 252
283 282 279 278 277 279 279 277 275 272 272 271 273 272 272 271 266 265 266 266 264 260 257 258 258 255 251
282 280 277 274 274 275 275 277 275 274 274 269 268 270 270 271 270 266 263 262 261 260 258 256 252 254 253
280 278 276 276 277 277 275 276 275 275 275 271 272 272 272 272 270 268 264 260 259 258 257 256 255 254 250
282 282 280 278 277 278 279 278 275 274 275 276 274 271 267 269 273 272 265 260 256 256 256 254 252 251 249
280 279 279 278 278 277 276 275 276 276 274 274 273 271 269 266 265 267 267 263 257 254 255 256 255 253 251
279 276 274 274 275 276 274 275 274 274 276 273 272 270 268 267 264 261 261 264 262 257 254 255 256 256 255
281 277 274 274 273 270 269 270 270 272 272 273 271 270 270 267 262 261 260 260 263 263 260 256 255 257 258
284 282 279 275 271 269 268 267 267 268 269 269 271 271 268 269 269 262 260 259 259 260 261 260 259 258 259
289 283 278 274 272 270 268 266 266 266 268 271 271 272 272 267 266 266 263 259 257 257 257 258 257 258 260
287 284 280 276 274 272 272 272 271 272 272 271 270 271 270 270 267 264 261 261 257 254 257 256 255 256 260
281 282 282 280 277 274 273 274 275 276 276 275 272 271 269 267 267 268 266 263 260 257 252 254 255 256 258
282 281 280 281 281 278 277 276 277 278 278 276 272 271 272 271 268 263 262 261 258 256 255 253 254 250 250
Height
3023 3022 3021 3019 3019 3018 3018 3017 3017 3016 3015 3015 3014 3014 3014 3015 3015 3015 3015 3015 3015 3016 3016 3017 3018 3019 3021
3015 3013 3013 3011 3012 3011 3010 3008 3008 3008 3007 3007 3006 3006 3005 3005 3005 3005 3005 3005 3006 3006 3007 3007 3008 3010 3012
3008 3006 3005 3002 3003 3002 3001 3000 2999 2998 2997 2998 2998 2997 2997 2996 2994 2995 2995 2995 2996 2996 2997 2998 2999 3000 3003
3000 2999 2998 2996 2993 2993 2994 2993 2992 2990 2989 2988 2987 2987 2988 2987 2987 2987 2986 2986 2986 2987 2987 2988 2989 2991 2993
2990 2989 2990 2988 2985 2984 2984 2985 2985 2983 2982 2980 2980 2978 2977 2978 2977 2978 2978 2978 2978 2978 2978 2978 2979 2981 2982
2981 2980 2979 2978 2975 2974 2973 2973 2974 2974 2973 2973 2970 2972 2970 2969 2968 2968 2968 2969 2969 2969 2970 2970 2970 2971 2972
2970 2970 2969 2967 2966 2964 2962 2962 2963 2964 2961 2962 2962 2962 2959 2960 2960 2960 2959 2958 2959 2960 2961 2961 2962 2963 2964
2958 2959 2958 2958 2955 2953 2952 2952 2951 2952 2951 2949 2952 2952 2951 2950 2949 2950 2951 2950 2950 2950 2951 2952 2953 2954 2955
2948 2946 2946 2945 2944 2941 2941 2939 2938 2939 2939 2937 2940 2939 2940 2941 2940 2940 2940 2941 2941 2941 2941 2942 2943 2945 2947
2937 2934 2932 2932 2930 2928 2926 2924 2923 2923 2926 2927 2925 2925 2926 2929 2930 2929 2929 2930 2931 2932 2932 2933 2933 2935 2937
2921 2920 2918 2917 2916 2914 2912 2909 2910 2910 2911 2909 2909 2910 2910 2912 2915 2916 2917 2918 2918 2920 2921 2922 2923 2925 2927
2901 2900 2900 2900 2901 2898 2896 2896 2895 2896 2898 2895 2893 2895 2894 2895 2898 2902 2903 2905 2906 2907 2908 2909 2911 2912 2914
2885 2884 2884 2884 2883 2882 2882 2881 2881 2882 2882 2883 2880 2879 2880 2878 2879 2885 2887 2890 2891 2893 2894 2895 2897 2898 2901
2873 2871 2870 2869 2869 2869 2868 2868 2867 2868 2870 2869 2868 2866 2864 2865 2864 2865 2870 2871 2876 2877 2879 2880 2882 2885 2886
2863 2861 2860 2859 2858 2858 2856 2855 2853 2853 2855 2856 2855 2852 2850 2849 2848 2850 2852 2855 2859 2863 2862 2864 2867 2870 2872
2853 2851 2848 2847 2846 2845 2843 2841 2839 2840 2839 2841 2839 2837 2835 2834 2836 2836 2836 2840 2842 2844 2846 2846 2851 2855 2857
2841 2839 2836 2834 2833 2831 2830 2828 2827 2826 2825 2825 2824 2822 2820 2819 2825 2823 2823 2825 2825 2826 2830 2831 2835 2841 2842